Location: Barnston
(51.8500°N, 0.4000°E)
Time: 18:33:32
(UTC+00:00)

Helios 1A - Pass Details

Date: 26 September 2023
Orbit: 572 x 586 km, 98.3° (Epoch: 01 December)

Event Time Altitude Azimuth Distance (km) Brightness Sun altitude
Rises 04:07:37 0° 159° (SSE) 2,809 6.5 -16.4°
Reaches altitude 10° 04:09:46 10° 158° (SSE) 1,910 5.6 -16.1°
Maximum altitude 04:13:54 78° 74° (ENE) 606 3.1 -15.5°
Drops below altitude 10° 04:18:03 10° 347° (NNW) 1,915 5.6 -14.9°
Sets 04:20:13 0° 347° (NNW) 2,816 6.5 -14.5°
